Regional Weather Roundup
Issued by NWS Grand Forks, ND

Home | Current Version | Previous Version | Graphics & Text | Print | Product List | Glossary On
Versions: 1 2 3 4 5 6 7 8 9 10 11 12 13 14 15 16 17 18 19 20 21 22 23 24 25 26 27 28 29 30 31 32 33 34 35 36 37 38 39 40 41 42 43 44 45 46 47 48 49 50
217
ASUS43 KFGF 060031
RWRFGF
PRAIRIE TO PINES  WEATHER ROUNDUP
NATIONAL WEATHER SERVICE EASTERN NORTH DAKOTA/GRAND FORKS ND
600 PM CST FRI FEB 05 2016

 **SATELLITE DATA USED TO AUGMENT SKY COVER AT AUTOMATED STATIONS**
 *****  WEATHER ACROSS EASTERN NORTH DAKOTA  *****

CITY           SKY/WX    TMP DP  RH WIND       PRES   REMARKS
GRAND FORKS    CLOUDY    23  16  74 SE5       30.13S WCI  17
6HR MIN TEMP:  22; 6HR MAX TEMP:  29;

GRAND FRKS AFB CLOUDY    22  17  79 W5        30.12F WCI  16
GRAND FRKS NWS   N/A     21 N/A N/A NW2         N/A
DEVILS LAKE    CLOUDY    23  19  85 S6        30.09F WCI  16
6HR MIN TEMP:  21; 6HR MAX TEMP:  26;

FARGO          CLEAR     25  19  78 SW3       30.14S
WAHPETON ARPT  CLOUDY    19  18  93 CALM      30.16R VSB 1/4
$$

 ***** WEATHER ACROSS CENTRAL AND WESTERN NORTH DAKOTA  *****

CITY           SKY/WX    TMP DP  RH WIND       PRES   REMARKS
BISMARCK       CLEAR     37  24  59 W7        30.11F
6HR MIN TEMP:  36; 6HR MAX TEMP:  43;

MINOT          CLOUDY    36  21  54 SW7       30.03F
6HR MIN TEMP:  30; 6HR MAX TEMP:  40;

JAMESTOWN      CLOUDY    28  17  63 W5        30.11S WCI  23
6HR MIN TEMP:  25; 6HR MAX TEMP:  33;

MINOT AFB      CLOUDY    32  24  70 CALM      30.02F
GARRISON         N/A     32  21  64 W6        30.06F
WILLISTON      CLEAR     36  25  64 SW5       30.03F
6HR MIN TEMP:  29; 6HR MAX TEMP:  41;

DICKINSON      PTCLDY    30  21  69 SW7       30.05F WCI  23
6HR MIN TEMP:  30; 6HR MAX TEMP:  41;

HETTINGER      PTCLDY    34  20  56 W6        30.12F
6HR MIN TEMP:  34; 6HR MAX TEMP:  44;

$$

 *****  OTHER AIRPORT OBSERVATIONS IN OUR AREA  *****

CITY           SKY/WX    TMP DP  RH WIND       PRES   REMARKS
WALHALLA       FAIR      21  21 100 S5        30.09F WCI  15
GRAFTON AIRPOR FAIR      12  12 100 S6        30.14S WCI   3
VALLEY CITY AR FAIR      23  23 100 W7        30.14R WCI  15
CANDO          FAIR      19  18  93 S8        30.08F WCI   9
CAVALIER APRT  FAIR      16  14  93 S5        30.11F WCI   9
GWINNER          N/A     21  18  86 W5        30.15  WCI  15
SHEYENNE NWR     N/A     25  19  76 W2        29.95S
ROLLA          FAIR      19  18  93 SW6       30.02F WCI  11
 ***** THE ABOVE OBSERVATIONS ARE NON NWS ARE NOT QUALITY
       CONTROLLED AND MAY MIS-REPORT RAIN FOR SNOW...
$$

  *****  WEATHER ACROSS NORTHERN MINNESOTA  *****

CITY           SKY/WX    TMP DP  RH WIND       PRES   REMARKS
FLAG ISLAND    CLOUDY    19  16  86 CALM      30.06F
WARROAD        CLOUDY    21  16  79 SW6       30.09S WCI  14
ROSEAU         CLOUDY    21  16  79 SW6       30.09F WCI  14
HALLOCK        CLOUDY    16  12  86 S7        30.11F WCI   6
THF RVR FALLS  PTCLDY    18  12  79 CALM      30.12F
6HR MIN TEMP:  18; 6HR MAX TEMP:  23;

BAUDETTE       CLOUDY    22  13  68 W3        30.07S
6HR MIN TEMP:  21; 6HR MAX TEMP:  25;

WASKISH        CLOUDY    18  16  93 SW5       30.09F WCI  11
CROOKSTON      CLOUDY    18  16  93 CALM      30.15S
STEPHEN NDAWN    N/A     16  12  86 S3          N/A
GREENBUSH NDAW   N/A     19  16  86 W3          N/A
$$
  *****  WEATHER ACROSS CENTRAL AND WEST MINNESOTA  *****

CITY           SKY/WX    TMP DP  RH WIND       PRES   REMARKS
FOSSTON        CLEAR     12  10  92 S6        30.12F FOG     WCI   3
BEMIDJI        MOCLDY    23  19  84 W6        30.10S WCI  15
PARK RAPIDS    CLOUDY    27  20  75 W9        30.10R WCI  18
6HR MIN TEMP:  24; 6HR MAX TEMP:  28;

ELBOW LAKE     CLOUDY    24  22  94 CALM      30.14S FOG
WADENA         CLOUDY    25  19  80 W7        30.12R WCI  17
DETROIT LAKES  CLOUDY    27  23  86 CALM      30.13F
MOORHEAD       CLEAR     21  19  93 CALM      30.15S
FERGUS FALLS   CLOUDY    23  19  86 CALM      30.18R
MORRIS MN      CLOUDY    28  25  86 CALM      30.14F
STAPLES        CLOUDY    25  18  74 SW3       30.12S
$$
  *****  WEATHER ELSEWHERE ACROSS MINNESOTA  *****

CITY           SKY/WX    TMP DP  RH WIND       PRES   REMARKS
DULUTH         CLOUDY    24  13  62 SW14G21   30.09F WCI  12
6HR MIN TEMP:  19; 6HR MAX TEMP:  26;

INTRNTL FALLS  CLOUDY    24  15  68 W5        30.07S WCI  18
6HR MIN TEMP:  21; 6HR MAX TEMP:  26;

ELY            CLOUDY    23  14  68 W3        30.06S
CLOQUET        CLOUDY    25  12  58 SW7       30.11S WCI  17
WHEATON        CLEAR     27  25  93 W5        30.18R WCI  21
BRAINERD       CLOUDY    25  16  68 S8        30.12F WCI  16
6HR MIN TEMP:  21; 6HR MAX TEMP:  27;

HIBBING        CLOUDY    24  14  65 SW3       30.08R
6HR MIN TEMP:  18; 6HR MAX TEMP:  25;

ALEXANDRIA     CLOUDY    25  20  81 SW7       30.13F WCI  17
6HR MIN TEMP:  23; 6HR MAX TEMP:  25;

SAINT CLOUD    CLOUDY    24  16  71 S6        30.17S WCI  17
6HR MIN TEMP:  22; 6HR MAX TEMP:  26;

MINNEAPOLIS    FLURRIES  25  18  74 S15G21    30.21F WCI  13
6HR MIN TEMP:  22; 6HR MAX TEMP:  29; 6HR PCP: TRACE;

$$

  *****  WEATHER ACROSS SOUTH DAKOTA  *****

CITY           SKY/WX    TMP DP  RH WIND       PRES   REMARKS
SIOUX FALLS    CLOUDY    29  27  92 CALM      30.18R
6HR MIN TEMP:  26; 6HR MAX TEMP:  30; 6HR PCP: TRACE;

BROOKINGS      PTCLDY    25  21  86 W5        30.16R WCI  19
WATERTOWN      CLEAR     26  22  84 W5        30.14S WCI  20
6HR MIN TEMP:  25; 6HR MAX TEMP:  29; 6HR PCP: TRACE;

HURON          CLEAR     31  29  92 W6        30.19R
6HR MIN TEMP:  27; 6HR MAX TEMP:  34; 6HR PCP:  0.01;

SISSETON         N/A     28  24  85 CALM      30.14S
ABERDEEN       CLEAR     33  20  58 NW7       30.16F
6HR MIN TEMP:  30; 6HR MAX TEMP:  42; 6HR PCP: TRACE;

MITCHELL       CLOUDY    33  30  88 N5        30.21R
PIERRE         CLEAR     34  25  69 W7        30.18S
6HR MIN TEMP:  34; 6HR MAX TEMP:  41; 6HR PCP: TRACE;

MOBRIDGE       CLEAR     35  22  58 CALM      30.12F
RAPID CITY     CLEAR     33  23  66 N8        30.17F
6HR MIN TEMP:  33; 6HR MAX TEMP:  42;

$$

  *****  SOME WEATHER IN NEARBY STATES *****

CITY           SKY/WX    TMP DP  RH WIND       PRES   REMARKS
GLASGOW MT     MOCLDY    37  27  67 SW8       30.00F
6HR MIN TEMP:  24; 6HR MAX TEMP:  40;

GREAT FALLS MT CLEAR     44  22  41 SW20G26   30.07F
6HR MIN TEMP:  42; 6HR MAX TEMP:  49;

CHEYENNE WY    CLEAR     27  11  51 W10       30.22R WCI  17
6HR MIN TEMP:  27; 6HR MAX TEMP:  31;

SCOTTSBLUFF NE CLEAR     31  17  56 W15       30.26F WCI  20
6HR MIN TEMP:  30; 6HR MAX TEMP:  34;

OMAHA NE       CLOUDY    32  28  85 S8        30.25S FOG     WCI  25
6HR MIN TEMP:  28; 6HR MAX TEMP:  32; 6HR PCP:  0.04;

DES MOINES IA  LGT SNOW  29  23  78 SE8       30.29S WCI  21
6HR MIN TEMP:  26; 6HR MAX TEMP:  32; 6HR PCP: TRACE;

DAVENPORT IA   CLOUDY    29  20  69 SW6       30.36R WCI  23
6HR MIN TEMP:  28; 6HR MAX TEMP:  30;

CHICAGO IL     CLOUDY    30  19  63 W6        30.34F WCI  24
6HR MIN TEMP:  30; 6HR MAX TEMP:  34;

EAU CLAIRE WI  CLOUDY    21  11  65 S8        30.24F WCI  11
6HR MIN TEMP:  17; 6HR MAX TEMP:  24;

LA CROSSE WI   CLOUDY    24  13  62 S9        30.29S WCI  14
6HR MIN TEMP:  18; 6HR MAX TEMP:  26;

$$

  *****  SOME NATIONAL WEATHER *****

CITY           SKY/WX    TMP DP  RH WIND       PRES   REMARKS
LA GUARDIA NY  PTCLDY    38  17  42 NW18      30.25R
6HR MIN TEMP:  36; 6HR MAX TEMP:  42;

RALEIGH NC     PTCLDY    40  17  39 CALM      30.37R
6HR MIN TEMP:  40; 6HR MAX TEMP:  47;

ATLANTA GA     CLEAR     43  17  35 NW8       30.35R
6HR MIN TEMP:  43; 6HR MAX TEMP:  50;

NEW ORLEANS LA PTCLDY    51  16  24 CALM      30.38S
6HR MIN TEMP:  50; 6HR MAX TEMP:  55;

OKLAHOMA CITY  CLOUDY    50  26  39 SE9       30.23R
6HR MIN TEMP:  50; 6HR MAX TEMP:  55;

ALBUQUERQUE NM CLEAR     41   2  19 N12       30.36S
6HR MIN TEMP:  32; 6HR MAX TEMP:  43;

SALT LAKE CITY MOCLDY    35  25  66 N7        30.52F
6HR MIN TEMP:  31; 6HR MAX TEMP:  41;

LOS ANGELES CA MOSUNNY   71  34  25 SW6       30.23F
6HR MIN TEMP:  66; 6HR MC1F1C2F2C3F3C4F4C5F5C6F6C7F7C8F8C9F9CaFaCbFbCcFcCd!



USA.gov is the U.S. government's official web portal to all federal, state and local government web resources and services.